METEOR 2-5 DEB

Satellite information

Favourite Embed

Satellite Type and Status

DEBRISIN ORBIT

Key statistics

Satellite METEOR 2-5 DEB at a glance.

Uptime

16686

Days in orbit

Revolutions

≈ 15.2

Per day

Orbit

LEO

Low Earth Orbit

Inclination

81.2

Latest

Satellite identification and parameters

Extended collection of information and parameters for METEOR 2-5 DEB.

Object identification

Identified? True

Debris? True

Object name: METEOR 2-5 DEB

International designator: 1979-095V

Object number (NORAD): 35254

Object ID (CCSDS): 35254

Country: COMMONWEALTH OF INDEPENDENT STATES (CIS)

Current information (Y/N): Y

RCS size: SMALL

Orbital parameters

Period: 94.911 minutes

Inclination: 81.1566 deg

SMA: 6892.413 km

Apoapsis: 525.68 km

Periapsis: 502.877 km

RAAN: 180.1296 deg

Eccentricy: 0.0016542

Argument of periapsis: 119.5536 deg

Mean anomaly: 240.7345 deg

Mean motion: 15.17210399 rev/day

Mean motion (dot): 0.00084932 rev/day2

B* drag term: 0.004214 1/REarth

Two-line elements (TLE)

Creation date: June 29, 2025, 10:46 p.m.

Reference frame: TEME

Reference center: EARTH

Epoch: June 29, 2025, 5:54 a.m. UTC

TLE line 0: 0 METEOR 2-5 DEB

TLE line 1: 1 35254U 79095V 25180.24598007 .00084932 00000-0 42140-2 0 9999

TLE line 2: 2 35254 81.1566 180.1296 0016542 119.5536 240.7345 15.17210399135892

Live tracking on map

Real-time ground track for satellite METEOR 2-5 DEB.

In-orbit conjunctions

A list of the most updated potential collisions computed for object METEOR 2-5 DEB.

Target Orbit TCA Probability of collision Miss distance Type
COSMOS 2251 DEB LEO 2024-11-14 12:09:05 0.0002620626 113.0 (m) DEBRIS
CZ-2D R/B SSO 2024-09-24 16:59:27 0.007175193 102.0 (m) ROCKET BODY
CZ-6A DEB SSO 2024-09-22 07:57:25 0.0001005456 152.0 (m) DEBRIS

Associated space launch

Second generation soviet meteorological satellite

METEOR 2-5 DEB was lifted into orbit during the mission ‘Vostok 8A92M | Meteor-2 5’, on board a Vostok 8A92M space rocket.

The launch took place on Oct. 31, 1979, 9:25 a.m. from 43/4 (43R).

For more information about the launch, click the button.

Launch to space Vostok 8A92M | Meteor-2 5
Vostok 8A92M | Meteor-2 5

Agency: N/A

Status: Launch Successful

Launch date: Oct. 31, 1979, 9:25 a.m. UTC

Rocket: Vostok 8A92M

Launch pad: 43/4 (43R)

Location: Plesetsk Cosmodrome, Russian Federation

...

Latest news about this satellite

There are no fresh news available about this satellite. Check back as we update our databases every day.


Newsletter sign-up

Weekly statistics, charts and insights to help you stay on top of the space industry.